Wind_Speed
35 35 35 37 40 44 47 49 51 54 55 57 58 61 63 66 67 66 67 68 70 68 68 69 66 67 72 69 67 64 65 63 62 57 54 51 50 48 46 45 46 46 45
31 30 32 32 35 37 38 39 42 44 46 48 50 51 51 53 54 54 54 56 54 56 57 57 59 59 60 61 59 56 53 55 51 47 45 44 43 42 44 39 40 40 36
37 34 37 35 34 36 36 37 38 40 42 44 45 47 47 47 47 47 47 48 48 49 47 47 49 49 51 52 52 53 53 49 45 41 38 36 35 33 31 30 38 35 26
39 39 37 38 37 35 34 34 34 34 36 36 38 40 39 40 41 43 43 42 41 41 42 41 43 43 44 45 45 44 44 43 41 38 36 34 26 23 29 33 32 29 25
40 39 38 36 34 32 32 33 34 33 34 32 31 31 34 35 36 36 37 37 36 37 37 36 38 41 40 41 40 40 40 38 34 34 24 11 24 29 31 29 24 26 25
42 43 38 35 33 34 33 34 35 35 34 32 31 30 31 32 34 35 34 34 35 35 36 35 35 36 37 38 40 44 42 39 36 27 16 15 11 25 27 23 35 38 32
39 43 39 42 39 38 37 36 36 33 32 32 30 30 29 28 29 31 32 33 34 36 36 37 38 36 35 38 40 40 37 37 35 28 19 17 12 18 21 34 33 31 27
44 48 45 44 41 41 41 40 36 34 32 31 32 29 30 29 28 29 30 31 33 32 35 38 40 38 36 34 35 36 37 38 30 27 21 19 22 26 23 32 39 32 26
50 48 46 48 46 39 39 39 36 37 35 33 34 33 30 32 33 32 30 32 32 33 33 33 34 39 38 38 39 39 37 37 30 25 24 29 24 14 28 36 34 29 20
49 49 44 45 47 43 41 39 38 39 39 37 38 36 34 38 36 34 35 33 33 35 34 33 31 32 35 35 37 40 42 39 32 27 25 36 29 30 34 35 29 24 17
49 45 47 46 48 45 39 40 41 43 42 38 41 38 37 40 40 40 38 36 36 37 35 33 31 27 31 36 38 37 38 40 38 29 30 31 36 33 35 39 25 21 19
56 49 47 50 44 45 41 40 42 44 46 47 44 45 42 44 41 42 43 40 37 37 37 37 35 33 31 31 31 36 36 33 36 39 35 32 31 34 35 35 31 28 23
55 52 49 51 52 46 42 48 44 44 44 46 49 47 47 47 45 47 45 44 37 41 40 39 39 37 37 35 30 32 33 31 31 35 37 34 33 33 35 31 26 32 28
57 52 52 50 46 54 54 50 47 50 53 54 54 51 51 49 49 50 48 42 41 42 43 42 43 42 38 37 36 32 33 35 31 32 30 29 35 33 32 34 31 33 26
53 51 50 54 57 56 57 51 56 50 48 51 52 56 57 49 51 50 49 48 47 45 45 46 46 44 42 40 39 38 34 36 32 35 33 33 34 36 35 38 36 35 29
52 51 48 52 61 61 57 55 52 56 58 56 50 53 55 57 55 54 52 52 50 50 49 46 49 49 49 46 43 38 36 35 35 34 36 34 39 39 40 42 39 36 33
58 55 55 55 55 61 59 53 50 37 42 46 46 47 52 57 62 58 56 56 56 53 52 49 50 54 54 52 48 45 37 38 36 35 38 40 39 39 38 40 39 39 33
56 61 63 62 60 60 57 52 52 39 46 56 54 61 71 71 69 65 62 62 60 57 52 50 51 54 54 53 52 49 41 38 36 37 41 41 39 40 42 41 40 37 35
68 67 68 63 65 65 60 58 54 59 68 72 68 70 68 73 73 71 67 66 62 57 55 55 55 59 59 56 56 54 49 40 38 42 43 43 41 41 40 39 36 37 38
78 77 69 67 64 68 68 62 63 65 71 72 71 67 71 76 75 72 74 70 65 60 59 61 61 62 60 60 58 58 55 43 44 43 46 46 45 40 37 32 34 37 38
79 84 73 64 69 74 71 70 69 71 73 74 74 73 76 74 68 71 71 69 64 60 68 63 62 64 63 61 60 53 56 53 47 43 45 45 46 42 39 34 31 34 36
81 87 82 76 71 74 75 74 74 75 76 76 77 78 78 77 74 71 69 62 62 58 54 64 60 62 66 66 65 59 59 60 52 42 50 47 46 48 40 36 36 35 43
87 89 84 82 77 73 75 79 78 78 80 81 79 77 78 75 74 76 74 70 67 62 45 64 61 68 65 66 67 67 64 63 55 46 52 50 44 46 43 39 33 38 38
93 90 86 83 80 78 78 78 81 81 80 81 82 81 79 79 77 77 72 70 70 66 64 55 57 78 75 76 72 72 71 67 62 49 51 53 44 44 42 40 35 39 38
91 91 88 83 84 83 81 82 80 83 85 83 82 81 82 81 79 78 75 74 72 72 67 68 73 77 80 76 72 73 71 68 66 53 51 56 47 47 43 40 37 36 38
88 91 90 89 87 85 85 85 84 83 87 87 86 83 83 83 81 80 82 79 76 72 71 73 75 79 81 77 77 69 72 69 65 57 52 59 52 48 44 44 41 36 38
Wind_Direction
277 281 283 283 282 281 280 280 279 279 280 280 277 276 276 276 277 277 277 275 275 276 276 276 277 278 278 280 281 281 280 279 280 280 280 283 282 283 284 288 290 292 295
279 281 285 287 289 288 287 287 287 287 286 284 284 282 280 278 278 278 278 277 275 275 276 278 278 279 280 280 281 282 280 279 279 280 282 278 278 281 284 294 299 300 298
285 284 284 287 292 292 293 293 291 288 288 288 285 284 283 282 280 280 280 280 279 281 284 282 279 280 282 283 281 281 282 281 280 277 276 281 282 284 295 303 304 298 290
283 285 288 288 289 291 294 295 295 296 292 288 286 287 283 284 282 282 281 281 283 285 288 287 285 286 286 284 283 282 283 283 279 276 279 282 300 294 304 303 301 301 293
289 288 287 289 286 286 291 298 301 303 299 294 289 290 284 284 284 284 285 287 287 286 285 288 289 290 288 283 281 281 282 281 279 278 288 290 302 302 304 297 310 309 300
286 289 289 285 284 287 291 298 298 302 308 309 305 303 296 291 290 288 290 290 289 288 289 290 289 290 289 285 283 283 280 282 281 277 253 207 237 279 288 283 299 304 303
282 284 284 282 282 284 287 291 293 298 305 309 314 309 311 300 294 293 289 288 289 287 283 283 284 285 283 280 283 285 286 290 289 280 232 202 230 233 263 277 283 300 295
279 280 285 282 282 283 286 288 285 295 303 304 303 308 307 306 298 295 291 290 292 294 288 283 279 279 281 280 283 284 286 287 286 281 237 216 232 249 251 270 274 290 292
275 275 281 283 278 280 286 286 281 294 296 299 301 304 308 309 309 303 303 301 301 301 300 297 289 276 274 272 276 279 278 283 282 277 256 231 247 282 255 259 275 279 286
271 278 277 280 284 279 281 285 288 283 290 295 294 294 304 307 306 308 305 308 305 308 312 308 295 285 277 277 280 279 275 271 272 276 264 236 241 233 247 259 260 285 283
260 268 276 276 280 284 281 283 284 287 286 290 290 284 293 301 298 307 303 303 306 306 311 316 308 302 295 289 284 283 276 270 267 265 263 249 248 247 254 259 263 276 275
265 264 267 271 273 279 281 283 286 289 288 284 287 291 289 294 290 300 305 301 300 303 307 309 311 309 299 300 298 289 279 273 269 262 261 261 252 248 249 252 258 261 265
263 268 262 264 267 267 274 283 276 278 277 277 279 284 288 291 281 292 299 299 297 300 306 307 308 310 314 306 307 303 288 276 270 267 260 262 255 246 239 243 247 255 255
261 260 266 261 268 265 263 263 269 270 274 278 275 281 284 284 285 285 294 296 299 297 299 303 305 305 308 311 307 301 309 286 265 259 257 247 247 239 240 232 251 252 236
272 262 261 266 261 263 262 266 267 273 275 277 278 282 280 281 283 285 289 293 295 295 298 300 302 302 303 305 308 306 307 296 264 252 251 243 243 241 234 239 245 248 233
268 269 259 260 265 261 259 262 270 283 285 281 277 279 280 278 281 283 285 287 287 291 294 295 297 299 299 301 306 306 299 305 274 253 249 242 244 241 238 241 243 236 234
271 268 262 254 258 259 257 254 260 279 265 256 276 282 280 279 281 279 282 282 284 284 289 291 294 297 295 297 304 306 299 308 280 255 246 243 247 243 242 243 240 234 232
273 267 261 260 257 260 260 250 248 231 237 256 268 266 268 274 276 279 280 281 280 284 287 288 290 292 291 294 301 300 298 297 290 261 246 247 240 239 242 236 229 226 228
284 272 266 258 259 256 255 252 242 240 242 252 259 269 269 273 278 281 282 280 281 283 284 288 289 289 288 294 297 296 294 293 299 259 251 247 248 242 240 236 236 231 235
283 277 267 259 256 258 255 251 249 244 240 246 251 256 265 270 274 277 280 281 284 287 285 286 286 288 286 290 291 294 290 295 300 254 254 250 250 248 240 238 241 236 235
279 274 269 262 258 255 255 254 250 251 252 252 252 255 259 265 272 278 278 278 282 283 287 288 288 287 283 285 287 288 288 289 287 264 246 246 245 247 243 243 244 241 242
271 268 267 264 261 255 255 253 252 252 253 254 252 253 255 257 261 263 273 275 279 282 292 291 291 285 282 284 286 285 287 289 288 277 245 246 241 243 241 244 249 249 243
262 260 262 261 261 262 257 253 252 252 253 254 254 254 255 256 256 257 258 266 266 272 270 276 282 282 281 285 287 285 284 284 285 282 244 245 243 244 240 241 249 252 258
256 255 255 258 260 261 261 256 252 251 253 255 255 255 258 258 259 259 259 258 262 265 263 262 270 269 273 281 281 282 282 282 284 282 244 241 241 244 243 244 248 262 270
254 255 254 254 257 260 259 257 255 252 251 253 255 258 259 261 259 261 260 259 259 257 257 260 258 266 269 271 272 276 279 278 281 276 248 236 238 241 244 248 250 261 273
255 256 256 254 253 253 255 255 255 255 255 254 254 256 258 259 260 262 262 262 262 263 261 260 263 266 268 271 271 269 270 274 277 273 248 236 236 237 243 248 254 261 269
Height
10843 10843 10842 10842 10841 10842 10841 10840 10838 10836 10835 10834 10834 10833 10833 10831 10831 10832 10831 10830 10829 10828 10827 10825 10823 10822 10821 10821 10821 10823 10824 10823 10823 10823 10823 10823 10821 10820 10818 10817 10816 10814 10812
10836 10838 10836 10837 10835 10835 10835 10834 10832 10830 10827 10826 10824 10823 10822 10822 10821 10820 10820 10820 10817 10816 10816 10814 10813 10811 10811 10810 10809 10810 10811 10812 10812 10812 10813 10812 10811 10810 10809 10810 10808 10807 10805
10827 10830 10830 10830 10830 10830 10830 10828 10826 10825 10822 10819 10818 10816 10815 10814 10813 10812 10811 10811 10811 10809 10808 10807 10805 10804 10802 10801 10799 10799 10800 10801 10803 10803 10802 10803 10803 10802 10801 10803 10801 10800 10798
10822 10822 10823 10823 10824 10823 10823 10822 10821 10819 10817 10815 10813 10811 10809 10808 10806 10805 10804 10802 10802 10802 10801 10800 10799 10797 10796 10794 10791 10789 10789 10792 10793 10793 10797 10797 10798 10797 10796 10795 10795 10794 10792
10815 10814 10816 10816 10817 10816 10817 10816 10815 10813 10811 10809 10808 10806 10804 10802 10800 10798 10797 10795 10794 10794 10794 10793 10792 10792 10790 10788 10785 10782 10780 10782 10782 10784 10795 10795 10794 10792 10791 10789 10789 10787 10786
10808 10805 10809 10810 10810 10810 10810 10809 10809 10808 10805 10803 10801 10800 10799 10797 10794 10793 10791 10789 10788 10788 10788 10787 10785 10784 10784 10782 10779 10774 10773 10774 10776 10781 10785 10785 10788 10784 10785 10786 10785 10782 10781
10804 10799 10801 10801 10802 10802 10803 10803 10803 10802 10800 10797 10796 10794 10792 10791 10789 10787 10786 10784 10783 10782 10782 10780 10778 10778 10777 10776 10774 10769 10767 10768 10772 10775 10777 10779 10781 10779 10777 10779 10781 10778 10775
10795 10792 10792 10792 10793 10794 10795 10795 10795 10795 10794 10793 10791 10789 10787 10785 10784 10782 10780 10778 10777 10776 10775 10774 10772 10772 10772 10770 10768 10765 10763 10762 10767 10769 10773 10771 10773 10772 10773 10773 10776 10773 10771
10784 10784 10783 10783 10784 10785 10786 10787 10787 10788 10787 10787 10785 10784 10782 10780 10778 10776 10774 10773 10770 10769 10768 10767 10764 10763 10763 10763 10761 10759 10757 10756 10762 10764 10766 10764 10765 10769 10766 10768 10766 10768 10765
10776 10773 10775 10775 10774 10775 10777 10779 10780 10780 10780 10779 10777 10777 10776 10773 10772 10769 10767 10765 10763 10762 10761 10759 10757 10755 10755 10755 10754 10752 10749 10748 10753 10758 10758 10757 10757 10759 10758 10759 10758 10760 10758
10764 10765 10763 10766 10765 10766 10769 10770 10771 10772 10772 10771 10769 10769 10769 10767 10764 10762 10761 10759 10756 10754 10753 10753 10752 10750 10749 10747 10746 10743 10739 10739 10745 10749 10748 10750 10753 10753 10751 10749 10751 10752 10755
10748 10757 10754 10752 10756 10757 10759 10761 10763 10763 10763 10762 10761 10762 10762 10761 10758 10755 10753 10752 10750 10748 10747 10747 10746 10745 10743 10740 10738 10734 10731 10730 10736 10737 10739 10744 10744 10744 10742 10742 10743 10746 10747
10740 10740 10744 10742 10744 10748 10748 10749 10748 10750 10750 10749 10748 10750 10753 10753 10750 10748 10748 10745 10743 10741 10739 10739 10738 10737 10735 10733 10731 10728 10725 10723 10726 10728 10728 10731 10734 10734 10734 10735 10737 10739 10742
10728 10733 10730 10733 10734 10732 10735 10734 10735 10734 10737 10739 10737 10736 10739 10741 10740 10739 10739 10738 10736 10734 10731 10730 10730 10729 10727 10725 10722 10722 10719 10717 10718 10719 10722 10721 10722 10725 10727 10727 10730 10733 10736
10717 10725 10727 10721 10718 10719 10722 10724 10724 10724 10724 10726 10727 10726 10726 10728 10729 10728 10728 10729 10729 10726 10724 10721 10720 10720 10718 10717 10716 10712 10711 10709 10710 10712 10713 10715 10714 10716 10719 10719 10723 10727 10730
10704 10709 10715 10709 10702 10705 10709 10714 10718 10716 10717 10716 10716 10712 10711 10715 10716 10718 10717 10717 10718 10718 10716 10714 10711 10710 10708 10707 10706 10707 10703 10700 10699 10704 10705 10707 10705 10707 10710 10711 10715 10720 10723
10690 10692 10694 10694 10688 10685 10695 10702 10707 10710 10707 10705 10705 10702 10696 10701 10704 10704 10705 10707 10705 10707 10706 10705 10703 10701 10699 10697 10697 10698 10696 10692 10689 10692 10696 10697 10698 10700 10701 10702 10706 10711 10715
10676 10675 10670 10675 10674 10672 10677 10688 10691 10697 10697 10695 10699 10693 10690 10688 10692 10693 10692 10692 10694 10694 10694 10692 10692 10691 10692 10692 10690 10687 10689 10686 10682 10682 10686 10686 10689 10692 10692 10694 10698 10702 10705
10657 10655 10652 10655 10659 10658 10662 10668 10676 10680 10683 10686 10685 10682 10683 10679 10678 10679 10680 10679 10680 10684 10682 10679 10680 10679 10680 10681 10681 10677 10677 10677 10674 10674 10677 10678 10677 10681 10682 10685 10689 10692 10694
10635 10631 10634 10640 10642 10641 10643 10649 10654 10657 10660 10664 10666 10669 10669 10667 10666 10666 10667 10665 10665 10667 10670 10669 10667 10667 10668 10666 10668 10668 10665 10667 10666 10664 10667 10670 10668 10670 10673 10677 10678 10681 10684
10616 10604 10613 10621 10622 10622 10624 10630 10633 10636 10640 10646 10652 10654 10655 10657 10655 10654 10655 10652 10654 10655 10655 10659 10656 10654 10654 10654 10657 10656 10655 10656 10654 10655 10658 10659 10660 10660 10662 10667 10668 10669 10673
10591 10580 10589 10595 10600 10604 10606 10608 10613 10618 10618 10622 10627 10633 10637 10641 10643 10644 10644 10642 10640 10643 10645 10642 10648 10640 10641 10641 10643 10645 10645 10643 10643 10644 10647 10649 10649 10649 10653 10657 10658 10658 10660
10558 10554 10564 10568 10575 10582 10585 10589 10592 10595 10600 10603 10607 10612 10615 10621 10624 10624 10628 10630 10633 10632 10634 10635 10635 10632 10631 10629 10630 10629 10631 10631 10632 10633 10635 10637 10640 10640 10642 10645 10647 10648 10649
10524 10529 10538 10546 10551 10556 10560 10565 10570 10574 10577 10580 10584 10589 10591 10596 10602 10605 10610 10612 10613 10619 10620 10624 10621 10614 10619 10618 10617 10615 10615 10617 10618 10622 10623 10625 10630 10630 10631 10633 10637 10637 10638
10500 10506 10514 10522 10526 10531 10536 10541 10547 10552 10555 10557 10561 10566 10570 10573 10579 10580 10583 10590 10595 10600 10605 10603 10603 10598 10600 10604 10605 10600 10602 10603 10604 10608 10608 10612 10619 10620 10623 10623 10627 10629 10628
10481 10483 10487 10491 10498 10507 10512 10517 10522 10527 10531 10536 10539 10544 10547 10551 10555 10558 10557 10564 10572 10577 10579 10581 10578 10580 10579 10582 10587 10588 10587 10587 10588 10592 10594 10599 10605 10608 10611 10613 10614 10619 10620